This is the latest recevied weather packets stored in our database for station/object YU4PTT-8. If no packets are shown the sender has not sent any weather packets the latest 10 day(s).
| Time | Temp. | Humidity | Pressure | Rain* | Wind** | Luminosity | Snow |
|---|---|---|---|---|---|---|---|
| 1778178082 | 12.78° C | 78% | 1005.2 hPa | 0 mm | 0 m/s | - | - |
| 1778176252 | 12.78° C | 78% | 1005.3 hPa | 0 mm | 0 m/s | - | - |
| 1778174422 | 13.33° C | 80% | 1005 hPa | 0 mm | 0 m/s | - | - |
| 1778172052 | 13.33° C | 79% | 1004.8 hPa | 0 mm | 0 m/s | - | - |
| 1778170223 | 14.44° C | 76% | 1004.9 hPa | 0 mm | 0 m/s | - | - |
| 1778168422 | 14.44° C | 75% | 1004.8 hPa | 0 mm | 0 m/s | - | - |
| 1778166082 | 15.56° C | 70% | 1005 hPa | 0 mm | 0 m/s | - | - |
| 1778164252 | 16.67° C | 65% | 1004.8 hPa | 0 mm | 0 m/s | - | - |
| 1778161852 | 16.11° C | 67% | 1004.7 hPa | 0 mm | 0 m/s | - | - |
| 1778160022 | 14.44° C | 68% | 1005 hPa | 0 mm | 0.45 m/s, 180° | - | - |
| 1778157653 | 15.56° C | 62% | 1005.2 hPa | 0 mm | 2.24 m/s, 158° | - | - |
| 1778155852 | 15° C | 63% | 1005.3 hPa | 0 mm | 0 m/s | - | - |
| 1778153452 | 15° C | 61% | 1005.3 hPa | 0 mm | 0.45 m/s, 202° | - | - |
| 1778151622 | 14.44° C | 62% | 1004.9 hPa | 0 mm | 0.45 m/s, 158° | - | - |
| 1778149822 | 13.89° C | 67% | 1005.5 hPa | 0 mm | 0 m/s | - | - |
| 1778147452 | 12.78° C | 67% | 1005.2 hPa | 0 mm | 0.89 m/s, 45° | - | - |
| 1778145052 | 11.67° C | 64% | 1005.1 hPa | 0 mm | 0 m/s | - | - |
| 1778143227 | 11.11° C | 64% | 1005 hPa | 0 mm | 0.89 m/s, 158° | - | - |
| 1778141425 | 10.56° C | 65% | 1005.1 hPa | 0 mm | 1.34 m/s, 112° | - | - |
| 1778120602 | 9.44° C | 88% | 1004.3 hPa | 0.51 mm | 0.89 m/s, 225° | - | - |
| 1778118202 | 11.11° C | 75% | 1004.2 hPa | 0 mm | 0.45 m/s, 158° | - | - |
| 1778115802 | 12.22° C | 68% | 1003.8 hPa | 0 mm | 0 m/s | - | - |
| 1778113432 | 12.22° C | 70% | 1003.8 hPa | 0 mm | 0 m/s | - | - |
| 1778111602 | 12.22° C | 70% | 1003.9 hPa | 0 mm | 0 m/s | - | - |
| 1778109202 | 12.78° C | 68% | 1003.6 hPa | 0 mm | 0.45 m/s, 68° | - | - |
* Rain latest hour (hover to see other rain measurements)
** Current wind speed in m/s (hover to see current wind gust speed)